Regional Weather Roundup
Issued by NWS

Home | Current Version | Previous Version | Text Only | Print | Product List | Glossary On
Versions: 1 2 3 4 5 6 7 8 9 10 11 12 13 14 15 16 17 18 19 20 21 22 23 24 25 26 27 28 29 30 31 32 33 34 35 36 37 38 39 40 41 42 43 44 45 46 47 48 49 50
000
ASUS43 KMKX 281321
RWRWI

WISCONSIN REGIONAL WEATHER ROUNDUP
NATIONAL WEATHER SERVICE MILWAUKEE/SULLIVAN WI
800 AM CDT THU APR 28 2016

NOTE: "FAIR" INDICATES FEW OR NO CLOUDS BELOW 12,000 FEET WITH NO
SIGNIFICANT WEATHER AND/OR OBSTRUCTIONS TO VISIBILITY.

WIZ001-002-006>008-014>016-023>028-281400-
NORTHWEST WISCONSIN

CITY           SKY/WX    TMP DP  RH WIND       PRES   REMARKS
SUPERIOR ARPT  CLOUDY    38  32  80 NE14G21   30.07R WCI  29
ASHLAND        CLOUDY    40  28  62 NE12      30.06S WCI  33
HAYWARD        CLOUDY    41  14  33 NE8       29.99S
SIREN          CLOUDY    41  17  36 NE9       29.99R
CUMBERLAND     CLOUDY    39  19  45 NE8       29.96R WCI  34
RICE LAKE      CLOUDY    42  19  40 NE7       29.97R
CHETEK         CLOUDY    42  20  41 E7        29.95R
LADYSMITH      CLOUDY    42  16  34 E16G22    29.97R
EAU CLAIRE     LGT RAIN  37  30  75 NE8       29.94R WCI  31
MENOMONIE      RAIN      38  36  91 NE8       29.95R WCI  32
NEW RICHMOND   RAIN      36  31  82 NE7       29.97R WCI  30
OSCEOLA        RAIN      38  32  80 N6        30.00R WCI  33
$$

WIZ003>005-009-010-017-018-281400-
NORTH CENTRAL WISCONSIN

CITY           SKY/WX    TMP DP  RH WIND       PRES   REMARKS
MANITOWISH WTR CLOUDY    39  17  41 E8        30.01S WCI  33
ARBOR VITAE    DRIZZLE   39  19  43 E5        30.01R
WOODRUFF       DRIZZLE   39  19  43 E5        30.01R
RHINELANDER    CLOUDY    38  18  44 NE7       30.01R WCI  33
EAGLE RIVER    CLOUDY    38  17  43 E9        30.01S WCI  31
LAND O LAKES   CLOUDY    38  18  45 E9        30.03S WCI  31
PHILLIPS       CLOUDY    41  17  39 E8        29.97S
TOMAHAWK       CLOUDY    38  18  42 E8        30.00R WCI  33
MEDFORD        CLOUDY    39  20  46 E12G18    29.93S WCI  31
MERRILL        CLOUDY    39  21  48 E9        29.98S WCI  33
$$

WIZ029-030-035-036-043>047-281400-
CENTRAL WISCONSIN

CITY           SKY/WX    TMP DP  RH WIND       PRES   REMARKS
WAUSAU         CLOUDY    41  20  43 E12       29.94F
MOSINEE        PTSUNNY   39  21  48 E17G25    29.95S WCI  30
MARSHFIELD     LGT RAIN  39  25  57 E13       29.92R WCI  31
STEVENS POINT  CLOUDY    37  24  59 E16G24    29.94S WCI  28
WAUPACA        CLOUDY    40  32  71 NE8       29.96S
WAUTOMA        NOT AVBL
WISC RAPIDS    LGT RAIN  40  25  55 E9G18     29.93R WCI  34
CAMP DOUGLAS   LGT RAIN  39  39 100 E10       29.91R WCI  32
$$

WIZ011>013-019>022-031-037>040-048>050-281400-
NORTHEAST WISCONSIN

CITY           SKY/WX    TMP DP  RH WIND       PRES   REMARKS
ANTIGO         CLOUDY    37  22  52 E10G16    29.99R WCI  30
SHAWANO        CLOUDY    40  31  68 E13       30.00S WCI  33
OCONTO         CLOUDY    40  32  73 NE8       30.02S WCI  34
STURGEON BAY   CLOUDY    39  27  60 E8G16     30.03S WCI  34
GREEN BAY      LGT RAIN  42  31  64 NE13      29.99R
MANITOWOC      LGT RAIN  42  30  62 E9        29.99R
APPLETON       CLOUDY    39  27  60 E15G21    29.94F WCI  31
CLINTONVILLE   LGT RAIN  39  30  70 E13G18    29.98F WCI  32
OSHKOSH        CLOUDY    43  29  57 E17G23    29.94S
$$

WIZ032>034-041-042-053>061-281400-
SOUTHWEST WISCONSIN

CITY           SKY/WX    TMP DP  RH WIND       PRES   REMARKS
LA CROSSE      CLOUDY    42  32  67 E6        29.90R
SPARTA         CLOUDY    41  32  72 E6        29.91R
VIROQUA        CLOUDY    39  32  75 E12       29.86S WCI  32
BOSCOBEL       CLOUDY    45  34  65 E8        29.87R
PRAIRIE DU CHI CLOUDY    43  35  71 E7        29.85S
PLATTEVILLE    CLOUDY    44  42  92 E14G20    29.84S
$$

WIZ056-057-062-063-064-067-068-281400-
SOUTH CENTRAL WISCONSIN

CITY           SKY/WX    TMP DP  RH WIND       PRES   REMARKS
REEDSBURG      CLOUDY    41  32  70 E6        29.89R
BARABOO/DELLS  CLOUDY    40  32  74 E7        29.89R
LONE ROCK      CLOUDY    43  35  73 E10       29.89R
MINERAL POINT  CLOUDY    43  41  93 E7        29.85S
MADISON        LGT RAIN  42  35  76 E17G24    29.88R
MIDDLETON      CLOUDY    43  38  83 E9        29.88R
WATERTOWN      LGT RAIN  40  34  80 E13G20    29.89R WCI  33
MONROE         CLOUDY    43  41  93 E10G20    29.86R
JANESVILLE     LGT RAIN  41  39  93 E25G33    29.83F
$$

WIZ051-052-058>065-066-070>072-281400-
SOUTHEAST WISCONSIN

CITY           SKY/WX    TMP DP  RH WIND       PRES   REMARKS
MILWAUKEE      CLOUDY    39  33  79 NE16      29.92S WCI  30
WAUKESHA       CLOUDY    37  32  81 E12G23    29.92R WCI  30
MILWAUKEE/TIMM CLOUDY    39  30  70 NE15      29.94R WCI  31
RACINE         CLOUDY    39  34  82 NE12      29.93R WCI  32
BURLINGTON     CLOUDY    37  33  84 E9G20     29.89R WCI  31
KENOSHA        CLOUDY    39  34  82 E18G26    29.89R WCI  30
FOND DU LAC    CLOUDY    44  24  45 E15G22    29.93S
SHEBOYGAN      LGT RAIN  42  26  53 E8        29.96R
WEST BEND      LGT RAIN  37  32  81 E12       29.94R WCI  30
JUNEAU         CLOUDY    42  27  56 E21G32    29.90R
$$

LSZ147-162-281400-
LAKE SUPERIOR

STATION/POSITION TIME  TEMP    WIND        PRES    WAVE
                       AIR SEA DIR/SP/G            HT/PER
                 (UTC) (F)     (DEG/KT/KT) (MB)    (FT/S)
W MID LAKE BUOY  1250   38 36   70/ 16/ 17 1020.8R   3/ 4
DEVILS ISLAND    1300   38      60/ 18/ 21 1019.9R
SAXON HARBOR     1200   40      CALM  /  6 1017.6R
$$

LMZ867-665-643>646-281400-
LAKE MICHIGAN

STATION/POSITION TIME  TEMP    WIND        PRES    WAVE
                       AIR SEA DIR/SP/G            HT/PER
                 (UTC) (F)     (DEG/KT/KT) (MB)    (FT/S)
CHAMBERS ISLAND  1200   38      30/ 10/ 13 1017.3R
N MID LAKE BUOY  1250   38 38   70/ 14/ 16 1017.9S   1/ 3
NORTHPORT PIER   1200   39      60/ 12/ 16 1017.6R
ALGOMA LAKESHORE 1200           50/ 21/ 26   N/A
KEWAUNEE LAKESHO 1200   40      40/ 14/ 19 1014.9R
SHEBOYGAN LAKESH 1300   41     100/ 15/ 17 1015.5R
PORT WASHINGTON  1200   42      80/  7/ 10 1014.9
S MID LAKE BUOY  1250   39 40   80/ 23/ 27 1011.4F   5/ 5
KENOSHA   LAKESH 1300   40      60/ 19/ 24 1012.5R
$$

TC  - TEMPERATURE IN CELSIUS
VSB - VISIBILITY IN STATUTE MILES
WCI - WIND CHILL INDEX
HX  - HEAT INDEX





USA.gov is the U.S. government's official web portal to all federal, state and local government web resources and services.